Location: Namasale
(1.5000°N, 32.6167°E)
Time: 15:31:26
(UTC+00:00)

Meteor 1-21 Rocket - Pass Details

Date: 09 April 2020
Orbit: 833 x 907 km, 81.2° (Epoch: 26 May)

Event Time Altitude Azimuth Distance (km) Brightness Sun altitude
Rises 17:22:56 0° 353° (N) 3,372 7.5 -22.5°
Reaches altitude 10° 17:25:19 10° 352° (N) 2,446 6.8 -23.1°
Maximum altitude 17:30:51 81° 266° (W) 862 4.2 -24.5°
Drops below altitude 10° 17:36:31 10° 178° (S) 2,497 6.5 -25.9°
Enters shadow 17:36:59 - 178° (S) 2,672 6.7 -26.0°
